📊 Raw Sensor Data
Showing records 49326 to 49350 of 85,117 total
| ID | Distance (ft) | Battery V | Battery A | Int Temp (°F) | Int Humid (%) | Ext Temp (°F) | Solar V | RSSI | SNR | Time Stamp |
|---|---|---|---|---|---|---|---|---|---|---|
| 35804 | -- | 4.05 | 0 | 73 | 37 | 67 | 5.10 | -84 | 8 | 03/23/2025 12:30 PM |
| 35803 | 15.4 | 4.05 | 0 | 72 | 37 | 66 | 5.10 | -84 | 8 | 03/23/2025 12:15 PM |
| 35802 | -- | 4.05 | 0 | 70 | 37 | 64 | 5.10 | -84 | 8 | 03/23/2025 12:00 PM |
| 35801 | -- | 4.05 | 0 | 68 | 38 | 64 | 5.10 | -83 | 8 | 03/23/2025 11:45 AM |
| 35800 | -- | 4.05 | 0 | 66 | 38 | 63 | 5.10 | -81 | 8 | 03/23/2025 11:30 AM |
| 35799 | -- | 4.07 | 0 | 66 | 38 | 63 | 5.10 | -81 | 7 | 03/23/2025 11:15 AM |
| 35798 | -- | 4.05 | 0 | 65 | 37 | 63 | 5.10 | -81 | 8 | 03/23/2025 11:00 AM |
| 35797 | -- | 4.15 | 0 | 64 | 37 | 62 | 5.10 | -82 | 8 | 03/23/2025 10:45 AM |
| 35796 | 15.3 | 4.05 | 0 | 62 | 37 | 61 | 5.10 | -81 | 8 | 03/23/2025 10:30 AM |
| 35795 | -- | 4.05 | 0 | 61 | 37 | 61 | 5.10 | -82 | 7 | 03/23/2025 10:15 AM |
| 35794 | 15.4 | 4.05 | 0 | 59 | 37 | 59 | 5.10 | -81 | 7 | 03/23/2025 10:00 AM |
| 35793 | 15.4 | 4.05 | 0 | 58 | 37 | 58 | 5.10 | -83 | 8 | 03/23/2025 09:45 AM |
| 35792 | 15.4 | 4.05 | 0 | 56 | 37 | 58 | 5.10 | -82 | 8 | 03/23/2025 09:30 AM |
| 35791 | 15.3 | 4.05 | 0 | 54 | 37 | 56 | 5.10 | -82 | 7 | 03/23/2025 09:15 AM |
| 35790 | 15.3 | 4.05 | 0 | 53 | 38 | 55 | 5.10 | -81 | 8 | 03/23/2025 09:00 AM |
| 35789 | 15.3 | 4.05 | 0 | 51 | 38 | 55 | 5.10 | -82 | 8 | 03/23/2025 08:45 AM |
| 35788 | 15.2 | 4.14 | 35 | 50 | 38 | 54 | 4.50 | -82 | 8 | 03/23/2025 08:30 AM |
| 35787 | 15.1 | 4.11 | 49 | 49 | 38 | 52 | 4.50 | -81 | 8 | 03/23/2025 08:15 AM |
| 35786 | 15.3 | 4.11 | 42 | 48 | 38 | 52 | 4.50 | -82 | 7 | 03/23/2025 08:00 AM |
| 35785 | 15.3 | 4.05 | 26 | 47 | 39 | 49 | 4.50 | -81 | 8 | 03/23/2025 07:45 AM |
| 35784 | 15.2 | 3.99 | 6 | 45 | 39 | 48 | 4.50 | -82 | 8 | 03/23/2025 07:30 AM |
| 35783 | 15.2 | 3.96 | -10 | 45 | 39 | 46 | 4.50 | -83 | 8 | 03/23/2025 07:15 AM |
| 35782 | 15.2 | 4.02 | -5 | 45 | 39 | 47 | 1.20 | -82 | 8 | 03/23/2025 07:00 AM |
| 35781 | 15.2 | 3.97 | -5 | 45 | 40 | 47 | 0.10 | -82 | 7 | 03/23/2025 06:45 AM |
| 35780 | 15.2 | 4.02 | -5 | 45 | 40 | 46 | 0.00 | -81 | 8 | 03/23/2025 06:30 AM |